Regional Weather Roundup
Issued by NWS

Home | Current Version | Previous Version | Text Only | Print | Product List | Glossary On
Versions: 1 2 3 4 5 6 7 8 9 10 11 12 13 14 15 16 17 18 19 20 21 22 23 24 25 26 27 28 29 30 31 32 33 34 35 36 37 38 39 40 41 42 43 44 45 46 47 48 49 50
000
ASUS42 KKEY 201410
RWRKEY

FLORIDA REGIONAL WEATHER ROUNDUP FOR THE FLORIDA KEYS
NATIONAL WEATHER SERVICE KEY WEST FLORIDA
1000 AM EDT SAT SEP 20 2014

...SOUTH FLORIDA AND THE KEYS...

CITY           SKY/WX    TMP DP  RH WIND       PRES   REMARKS
FORT MYERS     CLOUDY    77  74  90 W8        29.93R
SW REGIONAL AP CLOUDY    78  61  55 S6        29.94R
NAPLES         CLOUDY    81  75  82 S3        29.93R
MIAMI          PTSUNNY   82  76  81 VRB5      29.94R
WEST KENDALL   PTSUNNY   82  74  76 SW3       29.94R
HOMESTEAD      PTSUNNY   83  75  79 S6        29.94R HX  90
MARATHON       CLOUDY    85  77  77 S8        29.94R HX  95
BOCA CHICA NAS CLOUDY    84  74  71 S9        29.93S HX  91
KEY WEST INTL  LGT RAIN  84  74  71 S8        29.94S HX  91

...INTERNATIONAL WEATHER...

CITY           SKY/WX    TMP DP  RH WIND       PRES   REMARKS
NASSAU BAHAMAS PTSUNNY   84  75  74 S7        29.96S HX  92
CANCUN MEXICO  PTSUNNY   84  75  74 SE13      29.91R HX  92
COZUMEL MEXICO PTSUNNY   72  72 100 S6        29.92R

ADJACENT COASTAL WATERS...

STATION/POSITION TIME  SKY/WX   TEMP    WIND        PRES    WAVE
                                AIR SEA DIR/SP/G            HT/PER
                 (UTC)          (F)     (DEG/KT/KT) (MB)    (FT/S)
PULASKI SHOAL LI 1400            84     170/ 11/ 12 1013.2R
SAND KEY         1341            83     160/ 11/ 12 1013.7R
SOMBRERO KEY     1400            84     190/ 13/ 14 1014.4R
LONG KEY         1256            84 84  190/  8/  9 1014.3R
MOLASSES REEF    1400            83 85  200/  9/ 10 1013.8R
FOWEY ROCKS      1400            83 85  210/  8/  9 1014.1R
Buoy 42080       NOT AVBL

$$



USA.gov is the U.S. government's official web portal to all federal, state and local government web resources and services.